Погода в Казенно-Кужорском

Россия / Республика Адыгея     44°39′43″N   40°39′58″E
темп.,
°C
ветер,
м/с
пор.,
м/с
влажн.,
%
обл.,
%
осадки,
мм/ч
давл.,
гПа
погр.,
м
16 апреля, пт
пт1600:00+8ююв359461 0.4 101987
03:00+8юв359279 0.5 101872
06:00+8ююв338990 0.1 101851
09:00+13ююз1268100 0.1 1018321
12:00+16зсз3266100 0.0 1018902
15:00+13сз548477 0.3 1018595
18:00+12ссз2387100 0.4 1019249
21:00+11св2492100 0.5 1020155
17 апреля, сб
сб1700:00+10с2294100 0.3 101976
03:00+10сз1599100 5.5 1020280
06:00+9зсз2599100 5.0 1021367
09:00+8сз3493100 8.1 1023335
12:00+9с2289100 0.7 1023364
15:00+9с1193100 2.4 1023140
18:00+9в1396100 1.3 1023134
21:00+9вюв3694100 1.5 1023187
18 апреля, вс
вс1800:00+8вюв379385 0.0 1021190
03:00+8вюв3693100 0.0 1020152
06:00+8в4893100 0.1 1019249
09:00+10в3789100 0.3 1017286
12:00+16в3570100 0.0 1015753
15:00+17сз447758 0.3 1015443
18:00+12с339485 0.9 1016257
21:00+10юв1198100 1.1 101711
19 апреля, пн
пн1900:00+11юв2396100 0.0 101547
03:00+11ююв2293100 0.0 101416
06:00+11з1191100 0.0 101410
09:00+12юв2297100 2.5 101592
12:00+14в1291100 0.1 101496
15:00+19всв4676100 0.1 1012568
18:00+17всв4984100 0.0 1010300
21:00+16вюв71580100 0.0 1007365
20 апреля, вт
вт2000:00+14в2386100 0.0 100549
03:00+13юв41076100 0.0 1002150
06:00+16ююз4972100 0.0 1001138
09:00+16з81185100 0.0 1005717
12:00+12сз4788100 3.9 1007596
15:00+9зюз4995100 12.4 1012661
18:00+11з2786100 1.8 1011237
21:00+8ю339150 1.8 101440